{"data":{"norad_id":49770,"epoch":"2026-05-25T01:04:00.554304Z","epoch_age_seconds":71398,"freshness":"FRESH","line1":"1 49770U 21115AY  26145.04445086 -.00000623  00000+0 -21062-4 0  9993","line2":"2 49770  53.2127 156.4022 0001087  66.3491 293.7616 15.08838086248324","mean_motion":15.08838086,"eccentricity":0.0001087,"inclination_deg":53.2127,"raan_deg":156.4022,"arg_perigee_deg":66.3491,"mean_anomaly_deg":293.7616,"bstar":-2.1062e-5,"rev_number":24832,"period_min":95.437675742764,"perigee_km":538.99726506837,"apogee_km":540.50121353679,"semimajor_km":6917.8862393026,"source":"CELESTRAK","updated_at":"2026-05-25T13:38:16.841437Z"}}